| time (UTC) | temp F | wind direction | speed MPH | gust MPH | rain 1hr in | rain 24hr in | rain mn in | humidity % | barometer mb |
| 20260902065002 | 67 | 280 | 1.0 | 2.0 | 0.00 | 0.00 | 0.00 | 1014.3 | |
| 20260902064524 | 67 | 292 | 1.0 | 2.0 | 0.00 | 0.00 | 0.00 | 1014.6 | |
| 20260902064003 | 67 | 282 | 1.0 | 2.0 | 0.00 | 0.00 | 0.00 | 1014.3 | |
| 20260902063504 | 67 | 275 | 1.0 | 2.0 | 0.00 | 0.00 | 0.00 | 1014.6 | |
| 20260902063024 | 67 | 280 | 1.0 | 2.0 | 0.00 | 0.00 | 0.00 | 1014.6 | |
| 20260902062503 | 67 | 277 | 0.0 | 2.0 | 0.00 | 0.00 | 0.00 | 1014.9 | |
| 20260902062003 | 67 | 300 | 1.0 | 3.0 | 0.00 | 0.00 | 0.00 | 1014.3 | |
| 20260902061503 | 67 | 286 | 1.0 | 3.0 | 0.00 | 0.00 | 0.00 | 1014.6 | |
| 20260902061003 | 68 | 307 | 2.0 | 2.0 | 0.00 | 0.00 | 0.00 | 1014.6 | |
| 20260902060503 | 68 | 281 | 0.0 | 2.0 | 0.00 | 0.00 | 0.00 | 1014.6 | |
| 20260902060003 | 68 | 260 | 1.0 | 2.0 | 0.00 | 0.00 | 0.00 | 1014.3 | |
| 20260902055503 | 68 | 282 | 1.0 | 3.0 | 0.00 | 0.00 | 0.00 | 1014.3 | |
| 20260902055003 | 67 | 274 | 2.0 | 3.0 | 0.00 | 0.00 | 0.00 | 1014.3 | |
| 20260902054502 | 68 | 303 | 1.0 | 3.0 | 0.00 | 0.00 | 0.00 | 1014.3 | |
| 20260902054004 | 68 | 307 | 1.0 | 3.0 | 0.00 | 0.00 | 0.00 | 1013.6 | |
| 20260902053502 | 68 | 290 | 2.0 | 5.0 | 0.00 | 0.00 | 0.00 | 1013.6 | |
| 20260902053024 | 68 | 287 | 3.0 | 5.0 | 0.00 | 0.00 | 0.00 | 1013.6 | |
| 20260902052525 | 68 | 288 | 3.0 | 5.0 | 0.00 | 0.00 | 0.00 | 1013.6 | |
| 20260902052003 | 68 | 307 | 3.0 | 5.0 | 0.00 | 0.00 | 0.00 | 1013.6 | |
| 20260902051503 | 68 | 291 | 3.0 | 5.0 | 0.00 | 0.00 | 0.00 | 1013.6 | |
| 20260902051003 | 68 | 286 | 2.0 | 6.0 | 0.00 | 0.00 | 0.00 | 1013.9 | |
| 20260902050504 | 68 | 275 | 3.0 | 6.0 | 0.00 | 0.00 | 0.00 | 1013.6 | |
| 20260902050004 | 68 | 261 | 3.0 | 5.0 | 0.00 | 0.00 | 0.00 | 1013.9 | |
| 20260902045503 | 68 | 280 | 3.0 | 5.0 | 0.00 | 0.00 | 0.00 | 1013.9 | |
| 20260902045002 | 68 | 254 | 3.0 | 7.0 | 0.00 | 0.00 | 0.00 | 1013.2 | |
| 20260902044502 | 68 | 286 | 3.0 | 7.0 | 0.00 | 0.00 | 0.00 | 1013.6 | |
| 20260902044001 | 68 | 273 | 4.0 | 7.0 | 0.00 | 0.00 | 0.00 | 1013.6 | |
| 20260902043504 | 68 | 277 | 5.0 | 7.0 | 0.00 | 0.00 | 0.00 | 1013.9 | |
| 20260902043003 | 68 | 282 | 3.0 | 6.0 | 0.00 | 0.00 | 0.00 | 1013.9 | |
| 20260902042523 | 68 | 283 | 3.0 | 7.0 | 0.00 | 0.00 | 0.00 | 1014.3 | |
| 20260902042002 | 68 | 278 | 4.0 | 7.0 | 0.00 | 0.00 | 0.00 | 1013.6 | |
| 20260902041502 | 68 | 294 | 4.0 | 7.0 | 0.00 | 0.00 | 0.00 | 1013.2 | |
| 20260902041002 | 69 | 281 | 3.0 | 7.0 | 0.00 | 0.00 | 0.00 | 1013.6 | |
| 20260902040523 | 69 | 283 | 4.0 | 5.0 | 0.00 | 0.00 | 0.00 | 1013.6 | |
| 20260902040004 | 69 | 298 | 2.0 | 5.0 | 0.00 | 0.00 | 0.00 | 1012.2 | |
| 20260902035501 | 69 | 266 | 4.0 | 5.0 | 0.00 | 0.00 | 0.00 | 1012.6 | |
| 20260902035024 | 69 | 277 | 3.0 | 9.0 | 0.00 | 0.00 | 0.00 | 1012.9 | |
| 20260902034501 | 69 | 278 | 5.0 | 9.0 | 0.00 | 0.00 | 0.00 | 1012.6 | |
| 20260902034003 | 69 | 297 | 5.0 | 9.0 | 0.00 | 0.00 | 0.00 | 1012.9 | |
| 20260902033502 | 69 | 280 | 5.0 | 9.0 | 0.00 | 0.00 | 0.00 | 1012.2 | |
| 20260902033001 | 69 | 284 | 5.0 | 9.0 | 0.00 | 0.00 | 0.00 | 1012.6 | |
| 20260902032503 | 70 | 285 | 5.0 | 9.0 | 0.00 | 0.00 | 0.00 | 1012.6 | |
| 20260902032002 | 70 | 287 | 3.0 | 9.0 | 0.00 | 0.00 | 0.00 | 1012.2 | |
| 20260902031502 | 70 | 299 | 5.0 | 9.0 | 0.00 | 0.00 | 0.00 | 1012.2 | |
| 20260902031002 | 70 | 287 | 4.0 | 9.0 | 0.00 | 0.00 | 0.00 | 1012.6 | |
| 20260902030502 | 70 | 287 | 4.0 | 9.0 | 0.00 | 0.00 | 0.00 | 1012.6 | |
| 20260902030023 | 71 | 278 | 5.0 | 9.0 | 0.00 | 0.00 | 0.00 | 1012.6 | |
| 20260902025502 | 71 | 281 | 4.0 | 7.0 | 0.00 | 0.00 | 0.00 | 1012.6 | |
| 20260902025002 | 71 | 285 | 4.0 | 7.0 | 0.00 | 0.00 | 0.00 | 1011.9 | |
| 20260902024524 | 72 | 288 | 4.0 | 7.0 | 0.00 | 0.00 | 0.00 | 1011.9 | |
| 20260902024002 | 72 | 288 | 5.0 | 7.0 | 0.00 | 0.00 | 0.00 | 1011.5 | |
| 20260902023502 | 72 | 280 | 3.0 | 8.0 | 0.00 | 0.00 | 0.00 | 1011.9 | |
| 20260902023024 | 72 | 255 | 5.0 | 9.0 | 0.00 | 0.00 | 0.00 | 1011.5 | |
| 20260902022501 | 72 | 256 | 6.0 | 9.0 | 0.00 | 0.00 | 0.00 | 1011.5 | |
| 20260902022024 | 73 | 251 | 6.0 | 9.0 | 0.00 | 0.00 | 0.00 | 1011.9 | |
| 20260902021502 | 73 | 256 | 6.0 | 10.0 | 0.00 | 0.00 | 0.00 | 1012.2 | |
| 20260902021002 | 73 | 243 | 4.0 | 10.0 | 0.00 | 0.00 | 0.00 | 1011.9 | |
| 20260902020524 | 74 | 273 | 6.0 | 9.0 | 0.00 | 0.00 | 0.00 | 1012.6 | |
| 20260902020001 | 74 | 273 | 5.0 | 11.0 | 0.00 | 0.00 | 0.00 | 1011.5 | |
| 20260902015502 | 75 | 256 | 6.0 | 11.0 | 0.00 | 0.00 | 0.00 | 1012.2 | |
| 20260902015002 | 75 | 274 | 5.0 | 10.0 | 0.00 | 0.00 | 0.00 | 1012.2 | |
| 20260902014502 | 75 | 293 | 5.0 | 10.0 | 0.00 | 0.00 | 0.00 | 1011.9 | |
| 20260902014002 | 76 | 290 | 4.0 | 12.0 | 0.00 | 0.00 | 0.00 | 1012.2 | |
| 20260902013502 | 76 | 278 | 6.0 | 12.0 | 0.00 | 0.00 | 0.00 | 1012.2 | |
| 20260902013002 | 76 | 276 | 7.0 | 12.0 | 0.00 | 0.00 | 0.00 | 1011.9 | |
| 20260902012523 | 77 | 280 | 6.0 | 12.0 | 0.00 | 0.00 | 0.00 | 1012.2 | |
| 20260902012002 | 78 | 268 | 6.0 | 12.0 | 0.00 | 0.00 | 0.00 | 1012.6 | |
| 20260902011523 | 78 | 267 | 4.0 | 10.0 | 0.00 | 0.00 | 0.00 | 1012.2 | |
| 20260902011002 | 78 | 264 | 5.0 | 10.0 | 0.00 | 0.00 | 0.00 | 1011.9 | |
| 20260902010523 | 78 | 283 | 4.0 | 10.0 | 0.00 | 0.00 | 0.00 | 1011.9 | |
| 20260902010002 | 79 | 264 | 6.0 | 10.0 | 0.00 | 0.00 | 0.00 | 1012.2 | |
| 20260902005503 | 79 | 279 | 6.0 | 10.0 | 0.00 | 0.00 | 0.00 | 1012.2 | |
| 20260902005002 | 79 | 251 | 6.0 | 10.0 | 0.00 | 0.00 | 0.00 | 1012.2 | |
| 20260902004502 | 79 | 279 | 6.0 | 10.0 | 0.00 | 0.00 | 0.00 | 1012.6 | |
| 20260902004002 | 79 | 267 | 7.0 | 11.0 | 0.00 | 0.00 | 0.00 | 1012.9 | |
| 20260902003502 | 79 | 285 | 6.0 | 12.0 | 0.00 | 0.00 | 0.00 | 1012.2 | |
| 20260902003002 | 80 | 262 | 7.0 | 12.0 | 0.00 | 0.00 | 0.00 | 1012.6 | |
| 20260902002502 | 80 | 261 | 7.0 | 13.0 | 0.00 | 0.00 | 0.00 | 1012.6 | |
| 20260902002003 | 81 | 248 | 7.0 | 13.0 | 0.00 | 0.00 | 0.00 | 1012.6 | |
| 20260902001525 | 80 | 276 | 8.0 | 13.0 | 0.00 | 0.00 | 0.00 | 1012.6 | |
| 20260902001003 | 81 | 276 | 6.0 | 13.0 | 0.00 | 0.00 | 0.00 | 1012.2 | |
| 20260902000503 | 81 | 299 | 6.0 | 13.0 | 0.00 | 0.00 | 0.00 | 1011.9 | |
| 20260902000003 | 83 | 253 | 6.0 | 13.0 | 0.00 | 0.00 | 0.00 | 1011.5 | |
| 20260901235502 | 83 | 280 | 4.0 | 10.0 | 0.00 | 0.00 | 0.00 | 1011.5 | |
| 20260901235002 | 84 | 252 | 4.0 | 12.0 | 0.00 | 0.00 | 0.00 | 1011.5 | |
| 20260901234501 | 84 | 230 | 5.0 | 12.0 | 0.00 | 0.00 | 0.00 | 1012.2 | |
| 20260901234003 | 85 | 185 | 6.0 | 14.0 | 0.00 | 0.00 | 0.00 | 1011.9 | |
| 20260901233503 | 85 | 203 | 5.0 | 14.0 | 0.00 | 0.00 | 0.00 | 1012.2 | |
| 20260901233002 | 85 | 179 | 6.0 | 11.0 | 0.00 | 0.00 | 0.00 | 1011.9 | |
| 20260901232523 | 85 | 193 | 5.0 | 12.0 | 0.00 | 0.00 | 0.00 | 1012.6 | |
| 20260901232001 | 85 | 175 | 5.0 | 12.0 | 0.00 | 0.00 | 0.00 | 1012.9 | |
| 20260901231502 | 84 | 224 | 5.0 | 10.0 | 0.00 | 0.00 | 0.00 | 1012.2 | |
| 20260901231023 | 84 | 205 | 5.0 | 9.0 | 0.00 | 0.00 | 0.00 | 1012.2 | |
| 20260901230502 | 84 | 210 | 5.0 | 10.0 | 0.00 | 0.00 | 0.00 | 1012.2 | |
| 20260901230002 | 84 | 227 | 6.0 | 10.0 | 0.00 | 0.00 | 0.00 | 1012.2 | |
| 20260901225502 | 85 | 224 | 4.0 | 10.0 | 0.00 | 0.00 | 0.00 | 1012.6 | |
| 20260901225023 | 85 | 195 | 4.0 | 10.0 | 0.00 | 0.00 | 0.00 | 1012.6 | |
| 20260901224523 | 85 | 199 | 5.0 | 10.0 | 0.00 | 0.00 | 0.00 | 1012.9 | |
| 20260901224002 | 85 | 191 | 5.0 | 9.0 | 0.00 | 0.00 | 0.00 | 1013.2 | |
| 20260901223503 | 84 | 196 | 4.0 | 11.0 | 0.00 | 0.00 | 0.00 | 1013.2 | |
| 20260901223003 | 83 | 220 | 7.0 | 11.0 | 0.00 | 0.00 | 0.00 | 1013.6 | |
| 20260901222502 | 83 | 212 | 6.0 | 12.0 | 0.00 | 0.00 | 0.00 | 1012.9 | |
| 20260901222002 | 83 | 195 | 6.0 | 14.0 | 0.00 | 0.00 | 0.00 | 1012.9 | |
| 20260901221503 | 82 | 194 | 5.0 | 14.0 | 0.00 | 0.00 | 0.00 | 1013.2 | |
| 20260901221002 | 83 | 199 | 6.0 | 12.0 | 0.00 | 0.00 | 0.00 | 1013.2 | |
| 20260901220523 | 82 | 202 | 7.0 | 12.0 | 0.00 | 0.00 | 0.00 | 1013.6 | |
| 20260901220002 | 82 | 197 | 7.0 | 12.0 | 0.00 | 0.00 | 0.00 | 1013.6 | |
| 20260901215501 | 82 | 213 | 6.0 | 12.0 | 0.00 | 0.00 | 0.00 | 1013.9 | |
| 20260901215002 | 82 | 216 | 7.0 | 12.0 | 0.00 | 0.00 | 0.00 | 1013.2 | |
| 20260901214502 | 82 | 197 | 7.0 | 13.0 | 0.00 | 0.00 | 0.00 | 1013.6 | |
| 20260901214002 | 82 | 213 | 6.0 | 14.0 | 0.00 | 0.00 | 0.00 | 1013.2 | |
| 20260901213523 | 82 | 220 | 7.0 | 14.0 | 0.00 | 0.00 | 0.00 | 1013.9 | |
| 20260901213002 | 82 | 216 | 7.0 | 12.0 | 0.00 | 0.00 | 0.00 | 1013.6 | |
| 20260901212502 | 82 | 201 | 6.0 | 13.0 | 0.00 | 0.00 | 0.00 | 1013.9 | |
| 20260901212001 | 82 | 211 | 7.0 | 13.0 | 0.00 | 0.00 | 0.00 | 1013.6 | |
| 20260901211502 | 81 | 227 | 6.0 | 14.0 | 0.00 | 0.00 | 0.00 | 1013.6 | |
| 20260901211001 | 81 | 206 | 6.0 | 14.0 | 0.00 | 0.00 | 0.00 | 1013.6 | |
| 20260901210502 | 81 | 208 | 6.0 | 12.0 | 0.00 | 0.00 | 0.00 | 1013.6 | |
| 20260901210002 | 81 | 210 | 6.0 | 10.0 | 0.00 | 0.00 | 0.00 | 1013.6 | |
| 20260901205502 | 81 | 174 | 6.0 | 10.0 | 0.00 | 0.00 | 0.00 | 1013.6 | |
| 20260901205002 | 81 | 211 | 6.0 | 10.0 | 0.00 | 0.00 | 0.00 | 1013.9 | |
| 20260901204504 | 81 | 180 | 5.0 | 12.0 | 0.00 | 0.00 | 0.00 | 1014.3 | |
| 20260901204002 | 80 | 223 | 7.0 | 12.0 | 0.00 | 0.00 | 0.00 | 1014.6 | |
| 20260901203502 | 80 | 245 | 8.0 | 12.0 | 0.00 | 0.00 | 0.00 | 1014.3 | |
| 20260901203001 | 81 | 207 | 6.0 | 13.0 | 0.00 | 0.00 | 0.00 | 1014.3 | |
| 20260901202502 | 80 | 218 | 5.0 | 13.0 | 0.00 | 0.00 | 0.00 | 1014.3 | |
| 20260901202001 | 79 | 223 | 6.0 | 12.0 | 0.00 | 0.00 | 0.00 | 1014.6 | |
| 20260901201503 | 80 | 228 | 7.0 | 11.0 | 0.00 | 0.00 | 0.00 | 1013.9 | |
| 20260901201002 | 81 | 198 | 6.0 | 11.0 | 0.00 | 0.00 | 0.00 | 1014.3 | |
| 20260901200502 | 80 | 202 | 6.0 | 11.0 | 0.00 | 0.00 | 0.00 | 1014.3 | |
| 20260901200002 | 80 | 194 | 6.0 | 13.0 | 0.00 | 0.00 | 0.00 | 1013.9 | |
| 20260901195502 | 80 | 239 | 6.0 | 13.0 | 0.00 | 0.00 | 0.00 | 1013.9 | |
| 20260901195023 | 80 | 224 | 5.0 | 12.0 | 0.00 | 0.00 | 0.00 | 1013.9 | |
| 20260901194523 | 79 | 211 | 5.0 | 12.0 | 0.00 | 0.00 | 0.00 | 1013.9 | |
| 20260901194002 | 79 | 206 | 4.0 | 12.0 | 0.00 | 0.00 | 0.00 | 1013.9 | |
| 20260901193502 | 79 | 240 | 8.0 | 12.0 | 0.00 | 0.00 | 0.00 | 1014.3 | |
| 20260901193003 | 78 | 230 | 5.0 | 12.0 | 0.00 | 0.00 | 0.00 | 1013.9 | |
| 20260901192502 | 78 | 213 | 5.0 | 14.0 | 0.00 | 0.00 | 0.00 | 1014.3 | |
| 20260901192002 | 77 | 233 | 9.0 | 14.0 | 0.00 | 0.00 | 0.00 | 1014.9 | |
| 20260901191503 | 78 | 246 | 6.0 | 12.0 | 0.00 | 0.00 | 0.00 | 1014.9 | |
| 20260901191004 | 77 | 232 | 6.0 | 12.0 | 0.00 | 0.00 | 0.00 | 1014.6 | |
| 20260901190502 | 77 | 257 | 6.0 | 12.0 | 0.00 | 0.00 | 0.00 | 1014.6 | |
| 20260901190002 | 78 | 219 | 7.0 | 10.0 | 0.00 | 0.00 | 0.00 | 1014.9 | |
| 20260901185502 | 78 | 201 | 3.0 | 9.0 | 0.00 | 0.00 | 0.00 | 1014.9 | |
| 20260901185024 | 78 | 178 | 5.0 | 11.0 | 0.00 | 0.00 | 0.00 | 1014.9 | |
| 20260901184503 | 78 | 200 | 5.0 | 11.0 | 0.00 | 0.00 | 0.00 | 1014.9 | |
| 20260901184003 | 78 | 199 | 5.0 | 12.0 | 0.00 | 0.00 | 0.00 | 1014.9 | |
| 20260901183502 | 78 | 177 | 6.0 | 12.0 | 0.00 | 0.00 | 0.00 | 1015.3 | |
| 20260901183024 | 78 | 114 | 3.0 | 14.0 | 0.00 | 0.00 | 0.00 | 1014.3 | |
| 20260901182524 | 78 | 200 | 5.0 | 14.0 | 0.00 | 0.00 | 0.00 | 1015.3 | |
| 20260901182001 | 78 | 153 | 2.0 | 5.0 | 0.00 | 0.00 | 0.00 | 1014.9 | |
| 20260901181502 | 77 | 95 | 2.0 | 7.0 | 0.00 | 0.00 | 0.00 | 1014.9 | |
| 20260901181002 | 76 | 172 | 5.0 | 7.0 | 0.00 | 0.00 | 0.00 | 1014.6 | |
| 20260901180502 | 75 | 244 | 3.0 | 7.0 | 0.00 | 0.00 | 0.00 | 1014.9 | |
| 20260901180003 | 76 | 133 | 2.0 | 7.0 | 0.00 | 0.00 | 0.00 | 1014.6 | |
| 20260901175523 | 75 | 204 | 3.0 | 9.0 | 0.00 | 0.00 | 0.00 | 1014.3 | |
| 20260901175002 | 74 | 289 | 2.0 | 9.0 | 0.00 | 0.00 | 0.00 | 1014.6 | |
| 20260901174502 | 74 | 279 | 3.0 | 7.0 | 0.00 | 0.00 | 0.00 | 1014.9 | |
| 20260901174005 | 74 | 202 | 4.0 | 5.0 | 0.00 | 0.00 | 0.00 | 1015.3 | |
| 20260901173502 | 73 | 289 | 2.0 | 4.0 | 0.00 | 0.00 | 0.00 | 1014.9 | |
| 20260901173002 | 73 | 313 | 2.0 | 5.0 | 0.00 | 0.00 | 0.00 | 1015.6 | |
| 20260901172501 | 73 | 321 | 3.0 | 5.0 | 0.00 | 0.00 | 0.00 | 1014.6 | |
| 20260901172002 | 73 | 169 | 2.0 | 7.0 | 0.00 | 0.00 | 0.00 | 1014.9 | |
| 20260901171503 | 72 | 249 | 4.0 | 7.0 | 0.00 | 0.00 | 0.00 | 1014.9 | |
| 20260901171002 | 72 | 309 | 2.0 | 5.0 | 0.00 | 0.00 | 0.00 | 1015.3 | |
| 20260901170523 | 72 | 328 | 3.0 | 6.0 | 0.00 | 0.00 | 0.00 | 1014.9 | |
| 20260901170003 | 71 | 323 | 2.0 | 8.0 | 0.00 | 0.00 | 0.00 | 1015.3 | |
| 20260901165502 | 71 | 271 | 4.0 | 8.0 | 0.00 | 0.00 | 0.00 | 1014.9 | |
| 20260901165001 | 71 | 310 | 3.0 | 6.0 | 0.00 | 0.00 | 0.00 | 1014.9 | |
| 20260901164502 | 71 | 20 | 2.0 | 6.0 | 0.00 | 0.00 | 0.00 | 1014.6 | |
| 20260901164002 | 71 | 9 | 2.0 | 6.0 | 0.00 | 0.00 | 0.00 | 1014.6 | |
| 20260901163502 | 70 | 29 | 2.0 | 7.0 | 0.00 | 0.00 | 0.00 | 1014.9 | |
| 20260901163003 | 70 | 284 | 3.0 | 8.0 | 0.00 | 0.00 | 0.00 | 1014.9 | |
| 20260901162502 | 70 | 307 | 5.0 | 8.0 | 0.00 | 0.00 | 0.00 | 1014.6 | |
| 20260901162023 | 70 | 100 | 1.0 | 5.0 | 0.00 | 0.00 | 0.00 | 1014.6 | |
| 20260901161503 | 69 | 340 | 3.0 | 5.0 | 0.00 | 0.00 | 0.00 | 1014.6 | |
| 20260901161003 | 69 | 14 | 2.0 | 6.0 | 0.00 | 0.00 | 0.00 | 1014.9 | |
| 20260901160502 | 69 | 306 | 3.0 | 6.0 | 0.00 | 0.00 | 0.00 | 1014.9 | |
| 20260901160002 | 69 | 16 | 1.0 | 5.0 | 0.00 | 0.00 | 0.00 | 1014.6 | |
| 20260901155502 | 69 | 333 | 3.0 | 5.0 | 0.00 | 0.00 | 0.00 | 1014.9 | |
| 20260901155002 | 68 | 318 | 3.0 | 5.0 | 0.00 | 0.00 | 0.00 | 1014.6 | |
| 20260901154502 | 69 | 268 | 2.0 | 10.0 | 0.00 | 0.00 | 0.00 | 1014.6 | |
| 20260901154002 | 69 | 270 | 4.0 | 10.0 | 0.00 | 0.00 | 0.00 | 1014.6 | |
| 20260901153525 | 68 | 242 | 2.0 | 5.0 | 0.00 | 0.00 | 0.00 | 1014.9 | |
| 20260901153002 | 68 | 45 | 2.0 | 5.0 | 0.00 | 0.00 | 0.00 | 1014.9 | |
| 20260901152524 | 68 | 305 | 1.0 | 5.0 | 0.00 | 0.00 | 0.00 | 1014.9 | |
| 20260901152001 | 68 | 64 | 2.0 | 4.0 | 0.00 | 0.00 | 0.00 | 1014.9 | |
| 20260901151502 | 68 | 20 | 1.0 | 4.0 | 0.00 | 0.00 | 0.00 | 1014.9 | |
| 20260901151003 | 68 | 144 | 1.0 | 3.0 | 0.00 | 0.00 | 0.00 | 1014.3 | |
| 20260901150502 | 67 | 245 | 1.0 | 3.0 | 0.00 | 0.00 | 0.00 | 1014.3 | |
| 20260901150004 | 68 | 316 | 1.0 | 3.0 | 0.00 | 0.00 | 0.00 | 1014.6 | |
| 20260901145525 | 67 | 200 | 1.0 | 2.0 | 0.00 | 0.00 | 0.00 | 1014.9 | |
| 20260901145002 | 67 | 184 | 1.0 | 2.0 | 0.00 | 0.00 | 0.00 | 1014.3 | |
| 20260901144524 | 66 | 9 | 0.0 | 4.0 | 0.00 | 0.00 | 0.00 | 1014.3 | |
| 20260901144002 | 66 | 266 | 3.0 | 5.0 | 0.00 | 0.00 | 0.00 | 1014.3 | |
| 20260901143503 | 66 | 243 | 3.0 | 5.0 | 0.00 | 0.00 | 0.00 | 1014.3 | |
| 20260901143002 | 66 | 276 | 2.0 | 4.0 | 0.00 | 0.00 | 0.00 | 1014.3 | |
| 20260901142524 | 66 | 317 | 2.0 | 5.0 | 0.00 | 0.00 | 0.00 | 1014.3 | |
| 20260901142001 | 66 | 289 | 1.0 | 5.0 | 0.00 | 0.00 | 0.00 | 1014.3 | |
| 20260901141523 | 66 | 285 | 2.0 | 3.0 | 0.00 | 0.00 | 0.00 | 1014.6 | |
| 20260901141003 | 66 | 265 | 1.0 | 6.0 | 0.00 | 0.00 | 0.00 | 1014.9 | |
| 20260901140503 | 66 | 14 | 3.0 | 6.0 | 0.00 | 0.00 | 0.00 | 1014.3 | |
| 20260901140002 | 66 | 26 | 2.0 | 3.0 | 0.00 | 0.00 | 0.00 | 1014.3 | |
| 20260901135523 | 66 | 354 | 1.0 | 4.0 | 0.00 | 0.00 | 0.00 | 1013.9 | |
| 20260901135003 | 66 | 157 | 2.0 | 6.0 | 0.00 | 0.00 | 0.00 | 1013.9 | |
| 20260901134502 | 66 | 287 | 3.0 | 6.0 | 0.00 | 0.00 | 0.00 | 1013.9 | |
| 20260901134002 | 66 | 318 | 2.0 | 4.0 | 0.00 | 0.00 | 0.00 | 1013.9 | |
| 20260901133502 | 66 | 330 | 2.0 | 4.0 | 0.00 | 0.00 | 0.00 | 1013.6 | |
| 20260901133002 | 66 | 315 | 1.0 | 2.0 | 0.00 | 0.00 | 0.00 | 1013.9 | |
| 20260901132502 | 66 | 158 | 0.0 | 2.0 | 0.00 | 0.00 | 0.00 | 1014.3 | |
| 20260901132002 | 66 | 71 | 1.0 | 2.0 | 0.00 | 0.00 | 0.00 | 1014.3 | |
| 20260901131502 | 66 | 45 | 1.0 | 2.0 | 0.00 | 0.00 | 0.00 | 1013.9 | |
| 20260901131023 | 66 | 207 | 1.0 | 2.0 | 0.00 | 0.00 | 0.00 | 1014.3 | |
| 20260901130502 | 66 | 269 | 0.0 | 2.0 | 0.00 | 0.00 | 0.00 | 1014.6 | |
| 20260901130003 | 66 | 265 | 0.0 | 4.0 | 0.00 | 0.00 | 0.00 | 1013.9 | |
| 20260901125504 | 66 | 318 | 2.0 | 4.0 | 0.00 | 0.00 | 0.00 | 1013.9 | |
| 20260901125002 | 66 | 324 | 2.0 | 3.0 | 0.00 | 0.00 | 0.00 | 1013.9 | |
| 20260901124502 | 66 | 28 | 1.0 | 3.0 | 0.00 | 0.00 | 0.00 | 1014.3 | |
| 20260901124002 | 66 | 4 | 1.0 | 3.0 | 0.00 | 0.00 | 0.00 | 1013.9 | |
| 20260901123523 | 66 | 16 | 2.0 | 5.0 | 0.00 | 0.00 | 0.00 | 1013.9 | |
| 20260901123003 | 66 | 338 | 2.0 | 5.0 | 0.00 | 0.00 | 0.00 | 1013.9 | |
| 20260901122503 | 66 | 273 | 0.0 | 5.0 | 0.00 | 0.00 | 0.00 | 1013.6 | |
| 20260901122002 | 66 | 303 | 3.0 | 5.0 | 0.00 | 0.00 | 0.00 | 1013.6 | |
| 20260901121503 | 66 | 336 | 2.0 | 4.0 | 0.00 | 0.00 | 0.00 | 1014.3 | |
| 20260901121002 | 66 | 283 | 2.0 | 4.0 | 0.00 | 0.00 | 0.00 | 1013.6 | |
| 20260901120502 | 66 | 35 | 1.0 | 5.0 | 0.00 | 0.00 | 0.00 | 1013.6 | |
| 20260901120023 | 66 | 79 | 3.0 | 5.0 | 0.00 | 0.00 | 0.00 | 1013.2 | |
| 20260901115524 | 66 | 41 | 2.0 | 4.0 | 0.00 | 0.00 | 0.00 | 1013.6 | |
| 20260901115003 | 66 | 352 | 1.0 | 3.0 | 0.00 | 0.00 | 0.00 | 1013.2 | |
| 20260901114502 | 66 | 305 | 2.0 | 4.0 | 0.00 | 0.00 | 0.00 | 1013.6 | |
| 20260901114002 | 66 | 328 | 2.0 | 4.0 | 0.00 | 0.00 | 0.00 | 1013.9 | |
| 20260901113502 | 66 | 355 | 1.0 | 3.0 | 0.00 | 0.00 | 0.00 | 1013.9 | |
| 20260901113024 | 66 | 345 | 2.0 | 4.0 | 0.00 | 0.00 | 0.00 | 1013.9 | |
| 20260901112502 | 66 | 344 | 1.0 | 4.0 | 0.00 | 0.00 | 0.00 | 1013.9 | |
| 20260901112002 | 66 | 347 | 2.0 | 4.0 | 0.00 | 0.00 | 0.00 | 1013.9 | |
| 20260901111502 | 66 | 356 | 2.0 | 4.0 | 0.00 | 0.00 | 0.00 | 1013.9 | |
| 20260901111025 | 66 | 337 | 2.0 | 4.0 | 0.00 | 0.00 | 0.00 | 1013.9 | |
| 20260901110524 | 66 | 351 | 1.0 | 3.0 | 0.00 | 0.00 | 0.00 | 1013.9 | |
| 20260901110004 | 66 | 302 | 1.0 | 3.0 | 0.00 | 0.00 | 0.00 | 1013.9 | |
| 20260901105502 | 66 | 331 | 1.0 | 3.0 | 0.00 | 0.00 | 0.00 | 1013.9 | |
| 20260901105002 | 66 | 357 | 1.0 | 3.0 | 0.00 | 0.00 | 0.00 | 1014.3 | |
| 20260901104502 | 65 | 328 | 1.0 | 2.0 | 0.00 | 0.00 | 0.00 | 1013.9 | |
| 20260901104002 | 65 | 325 | 2.0 | 2.0 | 0.00 | 0.00 | 0.00 | 1014.3 | |
| 20260901103502 | 65 | 347 | 1.0 | 2.0 | 0.00 | 0.00 | 0.00 | 1014.3 | |
| 20260901103024 | 65 | 332 | 1.0 | 2.0 | 0.00 | 0.00 | 0.00 | 1013.9 | |
| 20260901102503 | 65 | 297 | 1.0 | 2.0 | 0.00 | 0.00 | 0.00 | 1013.6 | |
| 20260901102003 | 65 | 283 | 0.0 | 2.0 | 0.00 | 0.00 | 0.00 | 1013.6 | |
| 20260901101502 | 65 | 285 | 1.0 | 2.0 | 0.00 | 0.00 | 0.00 | 1013.9 | |
| 20260901101002 | 65 | 293 | 0.0 | 3.0 | 0.00 | 0.00 | 0.00 | 1013.9 | |
| 20260901100502 | 65 | 297 | 1.0 | 3.0 | 0.00 | 0.00 | 0.00 | 1013.6 | |
| 20260901100003 | 65 | 327 | 1.0 | 3.0 | 0.00 | 0.00 | 0.00 | 1013.9 | |
| 20260901095503 | 65 | 318 | 1.0 | 2.0 | 0.00 | 0.00 | 0.00 | 1013.9 | |
| 20260901095002 | 65 | 265 | 1.0 | 3.0 | 0.00 | 0.00 | 0.00 | 1013.9 | |
| 20260901094501 | 65 | 285 | 2.0 | 3.0 | 0.00 | 0.00 | 0.00 | 1013.6 | |
| 20260901094003 | 65 | 286 | 1.0 | 3.0 | 0.00 | 0.00 | 0.00 | 1013.9 | |
| 20260901093524 | 66 | 288 | 2.0 | 3.0 | 0.00 | 0.00 | 0.00 | 1013.6 | |
| 20260901093002 | 66 | 291 | 1.0 | 3.0 | 0.00 | 0.00 | 0.00 | 1013.6 | |
| 20260901092503 | 66 | 282 | 2.0 | 4.0 | 0.00 | 0.00 | 0.00 | 1013.9 | |
| 20260901092002 | 66 | 277 | 2.0 | 4.0 | 0.00 | 0.00 | 0.00 | 1013.6 | |
| 20260901091503 | 66 | 294 | 2.0 | 3.0 | 0.00 | 0.00 | 0.00 | 1013.9 | |
| 20260901091002 | 66 | 283 | 2.0 | 3.0 | 0.00 | 0.00 | 0.00 | 1013.6 | |
| 20260901090502 | 66 | 286 | 2.0 | 2.0 | 0.00 | 0.00 | 0.00 | 1013.9 | |
| 20260901090024 | 66 | 276 | 2.0 | 3.0 | 0.00 | 0.00 | 0.00 | 1013.6 | |
| 20260901085501 | 66 | 303 | 2.0 | 3.0 | 0.00 | 0.00 | 0.00 | 1013.9 | |
| 20260901085003 | 66 | 278 | 2.0 | 3.0 | 0.00 | 0.00 | 0.00 | 1013.9 | |
| 20260901084503 | 66 | 301 | 2.0 | 3.0 | 0.00 | 0.00 | 0.00 | 1013.9 | |
| 20260901084002 | 66 | 303 | 2.0 | 3.0 | 0.00 | 0.00 | 0.00 | 1013.6 | |
| 20260901083503 | 66 | 295 | 1.0 | 3.0 | 0.00 | 0.00 | 0.00 | 1013.9 | |
| 20260901083003 | 66 | 280 | 2.0 | 4.0 | 0.00 | 0.00 | 0.00 | 1013.6 | |
| 20260901082502 | 66 | 293 | 2.0 | 4.0 | 0.00 | 0.00 | 0.00 | 1013.6 | |
| 20260901082003 | 67 | 285 | 3.0 | 4.0 | 0.00 | 0.00 | 0.00 | 1013.6 | |
| 20260901081502 | 67 | 285 | 2.0 | 3.0 | 0.00 | 0.00 | 0.00 | 1014.3 | |
| 20260901081002 | 67 | 278 | 1.0 | 3.0 | 0.00 | 0.00 | 0.00 | 1014.3 | |
| 20260901080503 | 67 | 293 | 1.0 | 3.0 | 0.00 | 0.00 | 0.00 | 1013.9 | |
| 20260901080024 | 67 | 274 | 2.0 | 3.0 | 0.00 | 0.00 | 0.00 | 1013.6 | |
| 20260901075502 | 67 | 284 | 2.0 | 3.0 | 0.00 | 0.00 | 0.00 | 1013.6 | |
| 20260901075002 | 67 | 286 | 2.0 | 2.0 | 0.00 | 0.00 | 0.00 | 1013.6 | |
| 20260901074523 | 67 | 310 | 1.0 | 3.0 | 0.00 | 0.00 | 0.00 | 1013.9 | |
| 20260901074003 | 67 | 301 | 1.0 | 3.0 | 0.00 | 0.00 | 0.00 | 1013.9 | |
| 20260901073524 | 67 | 297 | 1.0 | 3.0 | 0.00 | 0.00 | 0.00 | 1013.9 | |
| 20260901073004 | 67 | 291 | 2.0 | 3.0 | 0.00 | 0.00 | 0.00 | 1013.9 | |
| 20260901072524 | 67 | 295 | 1.0 | 3.0 | 0.00 | 0.00 | 0.00 | 1013.9 | |
| 20260901072003 | 67 | 303 | 2.0 | 4.0 | 0.00 | 0.00 | 0.00 | 1014.3 | |
| 20260901071502 | 67 | 299 | 3.0 | 4.0 | 0.00 | 0.00 | 0.00 | 1013.2 | |
| 20260901071002 | 67 | 294 | 2.0 | 3.0 | 0.00 | 0.00 | 0.00 | 1013.6 | |
| 20260901070502 | 68 | 294 | 1.0 | 2.0 | 0.00 | 0.00 | 0.00 | 1013.9 | |
| 20260901070002 | 68 | 281 | 1.0 | 3.0 | 0.00 | 0.00 | 0.00 | 1013.6 | |
| 20260901065503 | 68 | 256 | 2.0 | 3.0 | 0.00 | 0.00 | 0.00 | 1013.6 |